Change the Weather History Date:

Saturday, September 28, 2013

  Actual Average Record
Temperature  
Mean Temperature 41 °F 42 °F  
Max Temperature 45 °F 50 °F 63 °F (1929)
Min Temperature 36 °F 34 °F 22 °F (1994)
Degree Days  
Heating Degree Days 24 23  
Month to date heating degree days 478 476  
Since 1 July heating degree days 981 1088  
Cooling Degree Days 0    
Month to date cooling degree days 0  
Year to date cooling degree days 4  
Moisture  
Dew Point 32 °F    
Average Humidity 0    
Maximum Humidity 0    
Minimum Humidity 0    
Precipitation  
Precipitation 0.06 in 0.10 in 1.36 in (1971)
Month to date precipitation 2.08 3.00  
Year to date precipitation 16.17 14.60  
Snow  
Snow 0.00 in 0.00 in 0.30 in (1968)
Month to date snowfall 0.0 0.1  
Since 1 July snowfall 0.0 0.1  
Since 1 September snowfall 0.0 0.1  
Snow Depth 0.00 in    
Sea Level Pressure  
Sea Level Pressure 29.44 in    
Wind  
Wind Speed 16 mph (NNW)    
Max Wind Speed 30 mph    
Max Gust Speed 39 mph    
Visibility 10 miles    
Events Rain    
T = Trace of Precipitation, MM = Missing Value Source: NWS Daily Summary

Daily Weather History Graph

Daily Weather History Graph

Search for Another Location

Airport or City:

Trip Planner

Search our weather history database for the weather conditions in past years. The results will help you decide how hot, cold, wet, or windy it might be!

Date:

Astronomy

Sep. 28, 2013 Rise Set
Actual Time 8:25 AM AKDT 8:07 PM AKDT
Civil Twilight 7:45 AM AKDT 8:46 PM AKDT
Nautical Twilight 6:58 AM AKDT 9:33 PM AKDT
Astronomical Twilight 6:08 AM AKDT 10:23 PM AKDT
Moon 1:13 AM AKDT (9/28) 5:36 PM AKDT (9/28)
Length of Visible Light 13h 01m
Length of Day
11h 41m
Waning Crescent, 34% of the Moon is Illuminated
Sep 28
Waning Crescent
Oct 4
New
Oct 11
First Quarter
Oct 18
Full
Oct 26
Last Quarter

Hourly Weather History & Observations

Time (AKDT) Temp. Windchill Dew Point Humidity Pressure Visibility Wind Dir Wind Speed Gust Speed Precip Events Conditions
12:54 AM 45.0 °F 40.1 °F 39.0 °F 80% 29.37 in 10.0 mi NW 9.2 mph - N/A   Mostly Cloudy
1:54 AM 44.1 °F 38.6 °F 39.0 °F 82% 29.38 in 10.0 mi NW 10.4 mph - N/A   Overcast
2:54 AM 43.0 °F 37.2 °F 39.0 °F 86% 29.40 in 10.0 mi NW 10.4 mph - 0.00 in   Overcast
3:54 AM 42.1 °F 37.1 °F 39.9 °F 92% 29.40 in 10.0 mi NW 8.1 mph - 0.00 in Rain Light Rain
4:54 AM 42.1 °F 35.7 °F 39.0 °F 89% 29.40 in 10.0 mi NW 11.5 mph 19.6 mph 0.01 in Rain Light Rain
5:54 AM 41.0 °F 33.5 °F 39.0 °F 93% 29.41 in 10.0 mi NNW 13.8 mph - 0.00 in Rain Light Rain
6:54 AM 39.9 °F 31.4 °F 37.9 °F 93% 29.41 in 10.0 mi NNW 16.1 mph - 0.01 in Rain Light Rain
7:54 AM 39.0 °F 29.9 °F 37.0 °F 93% 29.42 in 10.0 mi NNW 17.3 mph 24.2 mph 0.01 in Rain Light Rain
8:54 AM 39.0 °F 31.0 °F 36.0 °F 89% 29.41 in 10.0 mi NNW 13.8 mph 21.9 mph 0.01 in Rain Light Rain
9:54 AM 37.9 °F 30.0 °F 35.1 °F 89% 29.41 in 10.0 mi NNW 12.7 mph 20.7 mph 0.02 in Rain Light Rain
10:54 AM 37.9 °F 30.0 °F 32.0 °F 79% 29.42 in 10.0 mi NNW 12.7 mph 23.0 mph 0.00 in   Mostly Cloudy
11:54 AM 39.0 °F 29.6 °F 30.9 °F 73% 29.41 in 10.0 mi NNW 18.4 mph 25.3 mph N/A   Overcast
12:54 PM 41.0 °F 32.8 °F 30.9 °F 67% 29.41 in 10.0 mi NNW 16.1 mph 26.5 mph N/A   Overcast
1:54 PM 41.0 °F 32.8 °F 30.0 °F 65% 29.41 in 10.0 mi NNW 16.1 mph 29.9 mph N/A   Overcast
2:54 PM 42.1 °F 33.3 °F 30.0 °F 62% 29.41 in 10.0 mi North 19.6 mph 24.2 mph N/A   Overcast
3:54 PM 43.0 °F 33.8 °F 28.9 °F 58% 29.42 in 10.0 mi NNW 23.0 mph 33.4 mph N/A   Overcast
4:54 PM 44.1 °F 35.4 °F 28.0 °F 53% 29.42 in 10.0 mi NNW 21.9 mph 32.2 mph N/A   Overcast
5:54 PM 43.0 °F 33.5 °F 28.0 °F 56% 29.44 in 10.0 mi NNW 24.2 mph 34.5 mph N/A   Mostly Cloudy
6:54 PM 42.1 °F 33.3 °F 28.0 °F 58% 29.47 in 10.0 mi NNW 19.6 mph 39.1 mph N/A   Mostly Cloudy
7:54 PM 39.9 °F 30.2 °F 27.0 °F 60% 29.49 in 10.0 mi NNW 20.7 mph 33.4 mph N/A   Scattered Clouds
8:54 PM 37.9 °F 29.2 °F 27.0 °F 65% 29.51 in 10.0 mi NNW 15.0 mph 26.5 mph N/A   Scattered Clouds
9:54 PM 37.0 °F 27.7 °F 26.1 °F 65% 29.54 in 10.0 mi NNW 16.1 mph 20.7 mph N/A   Partly Cloudy
10:54 PM 36.0 °F 26.3 °F 25.0 °F 64% 29.56 in 10.0 mi NNW 16.1 mph - N/A   Partly Cloudy
11:54 PM 37.0 °F 28.1 °F 26.1 °F 65% 29.57 in 10.0 mi NNW 15.0 mph 25.3 mph N/A   Scattered Clouds